Terminal Aerodrome Forecast
Issued by NWS

Home | Current Version | Previous Version | Text Only | Print | Product List | Glossary On
Versions: 1 2 3 4 5 6 7 8 9 10 11 12 13 14 15
000
FTAK31 PANC 201139
TAFAIL
TAF
PAIL 201139Z 2012/2112 VRB04KT P6SM SCT080 BKN150
     FM210600 10008KT P6SM SCT050 BKN070=

USA.gov is the U.S. government's official web portal to all federal, state and local government web resources and services.